DW9572 Weather Reports


time (UTC)temp
C
wind
direction
speed
KPH
gust
KPH
rain 1hr
cm
rain 24hr
cm
rain mn
cm
humidity
%
barometer
mb
20260510160013 16 150 3.2 8.0 0.00 0.00 0.00 55 1014.4
20260510154512 17 84 0.0 0.0 0.00 0.00 0.00 51 1014.3
20260510153053 16 179 0.0 0.0 0.00 0.00 0.00 54 1014.5
20260510151548 15 191 4.8 9.7 0.00 0.00 0.00 57 1014.6
20260510150026 15 190 0.0 6.4 0.00 0.00 0.00 65 1014.4
20260510144526 13 218 3.2 6.4 0.00 0.00 0.00 64 1014.5
20260510143100 12 227 4.8 8.0 0.00 0.00 0.00 66 1014.5
20260510141559 12 276 0.0 0.0 0.00 0.00 0.00 72 1014.5
20260510140044 12 111 0.0 0.0 0.00 0.00 0.00 71 1014.4
20260510134537 12 99 0.0 11.3 0.00 0.00 0.00 67 1014.5
20260510133017 12 267 9.7 12.9 0.00 0.00 0.00 64 1014.2
20260510131515 11 266 3.2 8.0 0.00 0.00 0.00 62 1014.2
20260510130058 11 274 6.4 11.3 0.00 0.00 0.00 64 1014.0
20260510124611 12 330 0.0 0.0 0.00 0.00 0.00 60 1014.0
20260510123037 11 293 0.0 0.0 0.00 0.00 0.00 62 1013.9
20260510121534 11 298 1.6 4.8 0.00 0.00 0.00 65 1014.1
20260510120014 11 330 0.0 3.2 0.00 0.00 0.00 68 1014.1
20260510114514 11 1 0.0 1.6 0.00 0.00 0.00 71 1014.1
20260510113102 10 21 0.0 3.2 0.00 0.00 0.00 74 1014.2
20260510111617 10 37 3.2 6.4 0.00 0.00 0.00 77 1014.1
20260510110037 10 124 0.0 3.2 0.00 0.00 0.00 77 1014.2
20260510104547 10 274 0.0 4.8 0.00 0.00 0.00 72 1014.1
20260510103021 10 302 3.2 4.8 0.00 0.00 0.00 76 1014.0
20260510101520 9 217 0.0 6.4 0.00 0.00 0.00 81 1014.1
20260510100109 10 236 6.4 8.0 0.00 0.00 0.00 79 1014.1
20260510094558 9 169 0.0 0.0 0.00 0.00 0.00 76 1014.2
20260510093041 9 169 0.0 0.0 0.00 0.00 0.00 74 1014.2
20260510091549 10 78 0.0 0.0 0.00 0.00 0.00 68 1014.4
20260510090016 10 62 0.0 0.0 0.00 0.00 0.00 75 1014.6
20260510084513 11 62 0.0 0.0 0.00 0.00 0.00 74 1014.6
20260510083101 11 318 0.0 3.2 0.00 0.00 0.00 71 1014.7
20260510081551 11 82 0.0 1.6 0.00 0.00 0.00 64 1014.7
20260510080027 13 82 3.2 12.9 0.00 0.00 0.00 58 1014.8
20260510074529 12 49 0.0 0.0 0.00 0.00 0.00 64 1014.9
20260510073012 12 333 0.0 0.0 0.00 0.00 0.00 63 1014.9
20260510071511 13 297 0.0 0.0 0.00 0.00 0.00 54 1014.9
20260510070052 14 77 0.0 0.0 0.00 0.00 0.00 54 1014.9
20260510064606 14 337 0.0 0.0 0.00 0.00 0.00 54 1014.8
20260510063039 13 44 0.0 0.0 0.00 0.00 0.00 58 1014.8
20260510061543 15 44 0.0 0.0 0.00 0.00 0.00 50 1014.8
20260510060026 16 16 0.0 0.0 0.00 0.00 0.00 46 1014.8
20260510054512 17 337 0.0 0.0 0.00 0.00 0.00 45 1014.9
20260510053114 17 338 0.0 11.3 0.00 0.00 0.00 44 1014.9
20260510051606 19 323 3.2 12.9 0.00 0.00 0.00 40 1014.9
20260510050058 18 326 8.0 11.3 0.00 0.00 0.00 41 1014.9
20260510044540 18 339 4.8 6.4 0.00 0.00 0.00 42 1015.0
20260510043037 21 339 8.0 9.7 0.00 0.00 0.00 35 1015.0
20260510041518 21 331 9.7 11.3 0.00 0.00 0.00 35 1015.1
20260510040021 21 330 11.3 12.9 0.00 0.00 0.00 35 1015.2
20260510034506 21 331 9.7 11.3 0.00 0.00 0.00 35 1015.1
20260510033008 21 340 6.4 9.7 0.00 0.00 0.00 34 1015.0
20260510031508 21 338 4.8 6.4 0.00 0.00 0.00 35 1015.1
20260510030005 21 352 0.0 0.0 0.00 0.00 0.00 34 1015.0
20260510024504 22 53 0.0 0.0 0.00 0.00 0.00 34 1014.8
20260510023003 22 97 0.0 0.0 0.00 0.00 0.00 35 1015.0
20260510021506 22 103 0.0 3.2 0.00 0.00 0.00 36 1015.2
20260510020001 23 117 4.8 11.3 0.00 0.00 0.00 30 1015.1
20260510014542 23 117 8.0 11.3 0.00 0.00 0.00 28 1015.3
20260510013049 23 109 9.7 14.5 0.00 0.00 0.00 27 1015.4
20260510011523 23 108 14.5 17.7 0.00 0.00 0.00 25 1015.5
20260510010019 23 103 12.9 17.7 0.00 0.00 0.00 28 1015.7
20260510004602 23 115 14.5 19.3 0.00 0.00 0.00 30 1015.8
20260510003101 24 93 11.3 19.3 0.00 0.00 0.00 28 1015.9
20260510001540 24 118 14.5 20.9 0.00 0.00 0.00 28 1016.0
20260510000040 24 143 9.7 19.3 0.00 0.00 0.00 28 1016.1
20260509234534 24 148 9.7 16.1 0.00 0.00 0.00 27 1016.1
20260509233034 25 96 6.4 14.5 0.00 0.00 0.00 26 1016.2
20260509231500 25 169 3.2 11.3 0.00 0.00 0.00 27 1016.3
20260509230107 25 166 4.8 12.9 0.00 0.00 0.00 29 1016.5
20260509224543 24 101 9.7 14.5 0.00 0.00 0.00 29 1016.6
20260509223041 25 183 8.0 14.5 0.00 0.00 0.00 29 1016.9
20260509221540 24 108 9.7 12.9 0.00 0.00 0.00 29 1017.1
20260509220038 24 126 6.4 11.3 0.00 0.00 0.00 29 1017.2
20260509214534 24 110 6.4 12.9 0.00 0.00 0.00 30 1017.4
20260509213032 23 149 8.0 17.7 0.00 0.00 0.00 31 1017.7
20260509211531 23 200 9.7 16.1 0.00 0.00 0.00 32 1017.7
20260509210029 23 140 8.0 17.7 0.00 0.00 0.00 33 1017.8
20260509204522 23 157 6.4 12.9 0.00 0.00 0.00 34 1018.0
20260509203033 23 129 8.0 16.1 0.00 0.00 0.00 32 1018.1
20260509201501 22 122 8.0 16.1 0.00 0.00 0.00 33 1018.4
20260509200107 22 159 6.4 14.5 0.00 0.00 0.00 36 1018.6
20260509194541 22 141 8.0 17.7 0.00 0.00 0.00 38 1018.7
20260509193044 22 122 9.7 16.1 0.00 0.00 0.00 38 1019.0
20260509191518 21 111 11.3 16.1 0.00 0.00 0.00 39 1019.0
20260509190019 21 132 8.0 14.5 0.00 0.00 0.00 39 1019.1
20260509184602 21 203 8.0 16.1 0.00 0.00 0.00 39 1019.3
20260509183055 20 191 8.0 16.1 0.00 0.00 0.00 42 1019.6
20260509181534 20 321 4.8 14.5 0.00 0.00 0.00 42 1019.8
20260509180032 20 148 6.4 12.9 0.00 0.00 0.00 43 1019.8
20260509174516 19 100 11.3 16.1 0.00 0.00 0.00 45 1020.0
20260509173016 19 153 8.0 14.5 0.00 0.00 0.00 44 1020.1
20260509171553 19 143 8.0 16.1 0.00 0.00 0.00 44 1020.2
20260509170100 18 172 4.8 17.7 0.00 0.00 0.00 43 1020.3
20260509164531 18 173 6.4 12.9 0.00 0.00 0.00 44 1020.2
20260509163051 18 186 8.0 16.1 0.00 0.00 0.00 43 1020.2
20260509161518 18 212 9.7 22.5 0.00 0.00 0.00 46 1020.3